Mountain Home Air Force Base, ID

4:36 PM MDT on August 30, 2016 (GMT -0600)
Mountain Home Air Force Base

Weather History for KMUO - April, 2012

Change the Weather History Date:

Tuesday, April 3, 2012

  Actual Average Record
Temperature  
Mean Temperature 46 °F 47 °F  
Max Temperature 65 °F 59 °F 80 °F (1990)
Min Temperature 26 °F 33 °F 19 °F (2001)
Degree Days  
Heating Degree Days 19 19  
Month to date heating degree days 67 57  
Cooling Degree Days 0 0  
Month to date cooling degree days 0 0  
Moisture  
Dew Point 25 °F    
Average Humidity 52    
Maximum Humidity 92    
Minimum Humidity 21    
Precipitation  
Precipitation 0.00 in 0.03 in 0.59 in (1958)
Month to date precipitation 0.00 0.11  
Sea Level Pressure  
Sea Level Pressure 30.02 in    
Wind  
Wind Speed 11 mph (ESE)    
Max Wind Speed 24 mph    
Max Gust Speed 31 mph    
Visibility 10 miles    
Events      
T = Trace of Precipitation, MM = Missing Value Source: NWS Daily Summary

Daily Weather History Graph

Daily Weather History Graph

Search for Another Location

Airport or City:

Trip Planner

Search our weather history database for the weather conditions in past years. The results will help you decide how hot, cold, wet, or windy it might be!

Date:

Astronomy

Apr. 03, 2012 Rise Set
Actual Time 7:21 AM MDT 8:12 PM MDT
Civil Twilight 6:52 AM MDT 8:41 PM MDT
Nautical Twilight 6:18 AM MDT 9:16 PM MDT
Astronomical Twilight 5:42 AM MDT 9:51 PM MDT
Moon 4:57 PM MDT (4/3) 5:16 AM MDT (4/3)
Length of Visible Light 13h 49m
Length of Day
12h 51m
Waxing Gibbous, 87% of the Moon is Illuminated
Apr 3
Waxing Gibbous
Apr 6
Full
Apr 13
Last Quarter
Apr 21
New
Apr 29
First Quarter

Hourly Weather History & Observations

Time (MDT) Temp. Windchill Dew Point Humidity Pressure Visibility Wind Dir Wind Speed Gust Speed Precip Events Conditions
12:55 AM 30.0 °F 25.2 °F 27.7 °F 91% 30.21 in 10.0 mi SE 4.6 mph - N/A   Clear
1:55 AM 32.0 °F 26.4 °F 28.8 °F 88% 30.21 in 10.0 mi East 5.8 mph - N/A   Clear
2:55 AM 29.8 °F 23.0 °F 26.4 °F 87% 30.20 in 10.0 mi East 6.9 mph - N/A   Clear
3:55 AM 28.0 °F 22.8 °F 25.7 °F 91% 30.17 in 10.0 mi East 4.6 mph - N/A   Clear
4:55 AM 28.9 °F 22.8 °F 24.3 °F 83% 30.15 in 10.0 mi East 5.8 mph - N/A   Clear
5:55 AM 26.8 °F 19.3 °F 23.7 °F 88% 30.14 in 10.0 mi East 6.9 mph - N/A   Clear
6:55 AM 27.0 °F 16.1 °F 25.0 °F 92% 30.15 in 10.0 mi East 12.7 mph - N/A   Clear
7:55 AM 30.2 °F 19.3 °F 27.1 °F 88% 30.16 in 10.0 mi East 15.0 mph - N/A   Clear
8:55 AM 35.4 °F 25.6 °F 26.4 °F 70% 30.15 in 10.0 mi East 16.1 mph - N/A   Clear
9:55 AM 42.1 °F 34.2 °F 25.0 °F 51% 30.14 in 10.0 mi ESE 16.1 mph - N/A   Clear
10:55 AM 47.5 °F - 23.5 °F 39% 30.11 in 10.0 mi ESE 19.6 mph - N/A   Clear
11:55 AM 51.8 °F - 23.9 °F 34% 30.09 in 10.0 mi ESE 24.2 mph 31.1 mph N/A   Mostly Cloudy
12:55 PM 55.9 °F - 21.4 °F 26% 30.06 in 10.0 mi ESE 21.9 mph 27.6 mph N/A   Scattered Clouds
1:55 PM 57.4 °F - 20.5 °F 24% 30.00 in 10.0 mi ESE 18.4 mph 27.6 mph N/A   Mostly Cloudy
2:55 PM 61.2 °F - 21.4 °F 22% 29.97 in 10.0 mi East 24.2 mph 27.6 mph N/A   Overcast
3:55 PM 61.9 °F - 21.4 °F 21% 29.94 in 10.0 mi East 18.4 mph 24.2 mph N/A   Mostly Cloudy
4:55 PM 63.3 °F - 21.9 °F 21% 29.89 in 10.0 mi East 20.7 mph 27.6 mph N/A   Mostly Cloudy
5:55 PM 63.1 °F - 21.9 °F 21% 29.86 in 10.0 mi East 17.3 mph 26.5 mph N/A   Mostly Cloudy
6:55 PM 62.4 °F - 21.6 °F 21% 29.84 in 10.0 mi East 18.4 mph - N/A   Mostly Cloudy
7:55 PM 60.1 °F - 24.4 °F 26% 29.82 in 10.0 mi ESE 10.4 mph - N/A   Clear
8:55 PM 54.1 °F - 24.3 °F 31% 29.81 in 10.0 mi SE 8.1 mph - N/A   Mostly Cloudy
9:55 PM 50.2 °F - 26.8 °F 40% 29.81 in 10.0 mi South 9.2 mph - N/A   Mostly Cloudy
10:55 PM 50.9 °F - 27.1 °F 40% 29.78 in 10.0 mi SE 8.1 mph - N/A   Mostly Cloudy
11:55 PM 48.4 °F - 28.9 °F 47% 29.75 in 10.0 mi Calm Calm - N/A   Overcast